Tracking 29892 objects as of 21-Nov-2024
HD Live streaming from Space Station
objects crossing your sky now

COSMOS 715

Track COSMOS 715 now!
10-day predictions
COSMOS 715 is classified as:


NORAD ID: 7682
Int'l Code: 1975-016E
Perigee: 1,476.1 km
Apogee: 1,511.4 km
Inclination: 74.0 °
Period: 115.7 minutes
Semi major axis: 7864 km
RCS: 0.728 m2 (medium)
Launch date: February 28, 1975
Source: Commonwealth of Independent States (former USSR) (CIS)
Launch site: PLESETSK MISSILE AND SPACE COMPLEX (PKMTR)
Your satellite tracking list
Your tracking list is empty




NASA's NSSDC Master Catalog

Two Line Element Set (TLE):
1  7682U 75016E   24326.14344788 -.00000017  00000-0 -64862-5 0  9999
2  7682  74.0026 202.6132 0022397 212.4899 316.8551 12.44734074830824
Source of the keplerian elements: AFSPC